• In Hungary
  • List of Countries
  • For 7 days
  • Water Temperature
  • Satellite Maps
  • Weather Map
  • News
  • Weather Widgets
  • user-avatar
    Login

    Hourly Weather Staveley

    Today, 20 November, Monday

    Time Temperature Precipitation Wind Pressure Humidity
    00:00 +5°C° 0 mm 3 mps 756 mmHg 88%
    01:00 +5°C° 0.3 mm 4 mps 755 mmHg 90%
    02:00 +6°C° 0.3 mm 4 mps 755 mmHg 92%
    03:00 +7°C° 0.3 mm 5 mps 754 mmHg 93%
    04:00 +7°C° 0.3 mm 5 mps 753 mmHg 92%
    05:00 +8°C° 0.3 mm 6 mps 752 mmHg 91%
    06:00 +8°C° 0 mm 5 mps 751 mmHg 91%
    07:00 +8°C° 0.2 mm 5 mps 751 mmHg 90%
    08:00 +9°C° 0.2 mm 5 mps 751 mmHg 90%
    09:00 +10°C° 0.2 mm 6 mps 750 mmHg 90%
    10:00 +10°C° 0.1 mm 6 mps 750 mmHg 88%
    11:00 +11°C° 0.1 mm 6 mps 750 mmHg 86%
    12:00 +11°C° 0.1 mm 6 mps 750 mmHg 84%
    13:00 +11°C° 0.1 mm 6 mps 749 mmHg 83%
    14:00 +11°C° 0.1 mm 6 mps 749 mmHg 82%
    15:00 +13°C° 0.1 mm 6 mps 749 mmHg 81%
    16:00 +12°C° 0 mm 5 mps 749 mmHg 83%
    17:00 +10°C° 0 mm 5 mps 749 mmHg 86%
    18:00 +11°C° 0 mm 4 mps 750 mmHg 88%
    19:00 +10°C° 0 mm 4 mps 750 mmHg 90%
    20:00 +10°C° 0 mm 3 mps 750 mmHg 92%
    21:00 +10°C° 0 mm 3 mps 750 mmHg 94%
    22:00 +10°C° 0.2 mm 3 mps 750 mmHg 94%
    23:00 +10°C° 0.2 mm 3 mps 750 mmHg 95%

    Tomorrow, 21 November, Tuesday

    Time Temperature Precipitation Wind Pressure Humidity
    00:00 +11°C° 0.2 mm 3 mps 750 mmHg 96%
    01:00 +11°C° 0.3 mm 3 mps 749 mmHg 95%
    02:00 +11°C° 0.3 mm 4 mps 749 mmHg 95%
    03:00 +12°C° 0.3 mm 4 mps 749 mmHg 94%
    04:00 +12°C° 0 mm 4 mps 749 mmHg 93%
    05:00 +12°C° 0 mm 5 mps 748 mmHg 92%
    06:00 +12°C° 0 mm 5 mps 748 mmHg 92%
    07:00 +12°C° 0 mm 5 mps 748 mmHg 91%
    08:00 +12°C° 0 mm 5 mps 748 mmHg 91%
    09:00 +12°C° 0 mm 5 mps 748 mmHg 91%
    10:00 +11°C° 0 mm 6 mps 747 mmHg 88%
    11:00 +11°C° 0 mm 6 mps 747 mmHg 85%
    12:00 +11°C° 0 mm 6 mps 747 mmHg 81%
    13:00 +11°C° 0 mm 6 mps 746 mmHg 82%
    14:00 +11°C° 0 mm 6 mps 745 mmHg 82%
    15:00 +11°C° 0 mm 6 mps 744 mmHg 82%
    16:00 +11°C° 0 mm 7 mps 744 mmHg 82%
    17:00 +12°C° 0 mm 7 mps 743 mmHg 82%
    18:00 +12°C° 0 mm 8 mps 743 mmHg 82%
    19:00 +12°C° 0.1 mm 8 mps 742 mmHg 83%
    20:00 +12°C° 0.1 mm 8 mps 742 mmHg 83%
    21:00 +12°C° 0.1 mm 8 mps 741 mmHg 84%
    22:00 +12°C° 0.2 mm 8 mps 741 mmHg 84%
    23:00 +12°C° 0.2 mm 8 mps 741 mmHg 83%

    Day after tomorrow, 22 November, Wednesday

    Time Temperature Precipitation Wind Pressure Humidity
    00:00 +12°C° 0.2 mm 9 mps 740 mmHg 83%
    01:00 +12°C° 0.3 mm 9 mps 739 mmHg 83%
    02:00 +12°C° 0.3 mm 9 mps 739 mmHg 83%
    03:00 +12°C° 0.3 mm 9 mps 738 mmHg 83%
    04:00 +12°C° 0.4 mm 8 mps 738 mmHg 84%
    05:00 +12°C° 0.4 mm 8 mps 737 mmHg 84%
    06:00 +13°C° 0.4 mm 8 mps 737 mmHg 85%
    07:00 +13°C° 0.3 mm 8 mps 737 mmHg 85%
    08:00 +13°C° 0.3 mm 8 mps 737 mmHg 84%
    09:00 +12°C° 0.3 mm 8 mps 737 mmHg 84%
    10:00 +13°C° 0.2 mm 9 mps 736 mmHg 82%
    11:00 +13°C° 0.2 mm 9 mps 735 mmHg 80%
    12:00 +13°C° 0.2 mm 10 mps 735 mmHg 78%
    13:00 +13°C° 0.5 mm 10 mps 734 mmHg 79%
    14:00 +13°C° 0.5 mm 11 mps 733 mmHg 79%
    15:00 +13°C° 0.5 mm 11 mps 733 mmHg 80%
    16:00 +13°C° 0.2 mm 10 mps 732 mmHg 81%
    17:00 +13°C° 0.2 mm 9 mps 732 mmHg 81%
    18:00 +12°C° 0.2 mm 8 mps 732 mmHg 82%
    19:00 +12°C° 0.2 mm 8 mps 732 mmHg 83%
    20:00 +12°C° 0.2 mm 8 mps 731 mmHg 83%
    21:00 +12°C° 0.2 mm 8 mps 731 mmHg 84%
    22:00 +12°C° 0.2 mm 7 mps 731 mmHg 84%
    23:00 +11°C° 0.2 mm 7 mps 731 mmHg 84%

    23 November, Thursday

    Time Temperature Precipitation Wind Pressure Humidity
    00:00 +11°C° 0.2 mm 7 mps 731 mmHg 84%
    01:00 +11°C° 0 mm 7 mps 731 mmHg 83%
    02:00 +11°C° 0 mm 7 mps 732 mmHg 82%
    03:00 +11°C° 0 mm 8 mps 733 mmHg 81%
    04:00 +10°C° 0.1 mm 8 mps 734 mmHg 77%
    05:00 +7°C° 0.1 mm 8 mps 735 mmHg 74%
    06:00 +6°C° 0.1 mm 8 mps 736 mmHg 70%
    07:00 +6°C° 0 mm 8 mps 737 mmHg 70%
    08:00 +6°C° 0 mm 8 mps 738 mmHg 69%
    09:00 +6°C° 0 mm 8 mps 739 mmHg 69%
    10:00 +7°C° 0 mm 8 mps 740 mmHg 67%
    11:00 +7°C° 0 mm 8 mps 740 mmHg 65%
    12:00 +8°C° 0 mm 9 mps 741 mmHg 63%
    13:00 +9°C° 0.2 mm 8 mps 741 mmHg 67%
    14:00 +9°C° 0.2 mm 8 mps 741 mmHg 71%
    15:00 +7°C° 0.2 mm 8 mps 740 mmHg 75%
    16:00 +8°C° 0.6 mm 7 mps 741 mmHg 76%
    17:00 +8°C° 0.6 mm 6 mps 741 mmHg 78%
    18:00 +7°C° 0.6 mm 5 mps 741 mmHg 79%
    19:00 +7°C° 0 mm 5 mps 742 mmHg 78%
    20:00 +7°C° 0 mm 5 mps 742 mmHg 76%
    21:00 +6°C° 0 mm 5 mps 743 mmHg 75%
    22:00 +6°C° 0 mm 5 mps 744 mmHg 76%
    23:00 +6°C° 0 mm 4 mps 744 mmHg 76%

    24 November, Friday

    Time Temperature Precipitation Wind Pressure Humidity
    00:00 +6°C° 0 mm 4 mps 745 mmHg 77%
    01:00 +7°C° 0 mm 3 mps 745 mmHg 79%
    02:00 +6°C° 0 mm 2 mps 745 mmHg 80%
    03:00 +6°C° 0 mm 2 mps 745 mmHg 82%
    04:00 +7°C° 0 mm 1 mps 745 mmHg 82%
    05:00 +7°C° 0 mm 1 mps 745 mmHg 82%
    06:00 +7°C° 0 mm 1 mps 744 mmHg 82%
    07:00 +7°C° 0 mm 1 mps 745 mmHg 83%
    08:00 +7°C° 0 mm 1 mps 745 mmHg 83%
    09:00 +7°C° 0 mm 1 mps 745 mmHg 83%
    10:00 +7°C° 0.1 mm 1 mps 745 mmHg 81%
    11:00 +7°C° 0.1 mm 2 mps 745 mmHg 78%
    12:00 +8°C° 0.1 mm 2 mps 745 mmHg 76%
    13:00 +7°C° 0.4 mm 2 mps 745 mmHg 79%
    14:00 +7°C° 0.4 mm 2 mps 745 mmHg 82%
    15:00 +7°C° 0.4 mm 2 mps 745 mmHg 84%
    16:00 +7°C° 0.4 mm 2 mps 745 mmHg 86%
    17:00 +6°C° 0.4 mm 2 mps 745 mmHg 87%
    18:00 +5°C° 0.4 mm 3 mps 746 mmHg 89%
    19:00 +5°C° 0.2 mm 3 mps 746 mmHg 88%
    20:00 +5°C° 0.2 mm 4 mps 747 mmHg 87%
    21:00 +4°C° 0.2 mm 4 mps 747 mmHg 87%
    22:00 +4°C° 0 mm 4 mps 748 mmHg 84%
    23:00 +3°C° 0 mm 4 mps 748 mmHg 81%

    25 November, Saturday

    Time Temperature Precipitation Wind Pressure Humidity
    00:00 +3°C° 0 mm 3 mps 749 mmHg 78%
    01:00 +2°C° 0 mm 3 mps 749 mmHg 77%
    02:00 +1°C° 0 mm 4 mps 750 mmHg 76%
    03:00 +1°C° 0 mm 4 mps 750 mmHg 74%
    04:00 +1°C° 0 mm 4 mps 751 mmHg 74%
    05:00 0°C° 0 mm 4 mps 751 mmHg 74%
    06:00 0°C° 0 mm 4 mps 752 mmHg 74%
    07:00 0°C° 0 mm 4 mps 753 mmHg 74%
    08:00 +1°C° 0 mm 4 mps 753 mmHg 73%
    09:00 +1°C° 0 mm 4 mps 754 mmHg 73%
    10:00 +2°C° 0 mm 5 mps 754 mmHg 69%
    11:00 +3°C° 0 mm 5 mps 754 mmHg 65%
    12:00 +3°C° 0 mm 6 mps 755 mmHg 62%
    13:00 +3°C° 0.1 mm 5 mps 755 mmHg 62%
    14:00 +3°C° 0.1 mm 5 mps 755 mmHg 63%
    15:00 +2°C° 0.1 mm 5 mps 755 mmHg 64%
    16:00 +2°C° 0 mm 5 mps 755 mmHg 66%
    17:00 +1°C° 0 mm 5 mps 756 mmHg 68%
    18:00 +1°C° 0 mm 4 mps 756 mmHg 70%
    19:00 +1°C° 0 mm 5 mps 757 mmHg 71%
    20:00 0°C° 0 mm 5 mps 757 mmHg 73%
    21:00 0°C° 0 mm 5 mps 758 mmHg 74%
    22:00 0°C° 0 mm 5 mps 758 mmHg 74%
    23:00 0°C° 0 mm 5 mps 758 mmHg 75%
    Show more